Kezdőlap
METAR-TAF:

METAR-TAF

Repülőterek :

Pipestone Municipal Airport

Pipestone, Minnesota, Amerikai Egyesült Államok

földrajzi szélesség: 43-59N, földrajzi hosszúság: 096-19W, magasság: 529 m

Jelenlegi meteorológiai megfigyelések

A jelentés 24 perccel ezelõtt készült, 12:35 UTC
Dél-délkeleti szél 6 kt
Hőmérséklet 23°C
Páratartalom 94%
Légköri nyomás 1016 hPa
Látótávolság: 4.0 km
Derült ég
Párásság

METAR: KPQN 281235Z AUTO 15006KT 2 1/2SM BR CLR 23/22 A3001 RMK AO2

Idő: 07:59 (12:59 UTC)


TAF: hiányzik

Meteorológiai megfigyelések és előrejelzések több, mint 4000 repülőtéren (METAR és TAF jelentéseket).

A térképen piros és sárga pontok jelzik az elérhető meteorológiai állomásokat.

Mozgassa az egeret a pont fölött, hogy megjelenjen az állomás neve.

Azután kattintson az időjárási megfigyelések és előrejelzések megtekintéséhez.

A térkép megváltoztatása: kattintson a fekete keresztel jelölt zöld gombra ráközelítéshez, a vonallal jelölt zöld gombra távolításhoz, vagy a zöld nyilakra a szomszédos térképek eléréséhez.


METAR-TAF: